This is the latest recevied weather packets stored in our database for station/object OSTR-WX. If no packets are shown the sender has not sent any weather packets the latest 10 day(s).
| Time | Temp. | Humidity | Pressure | Rain* | Wind** | Luminosity | Snow |
|---|---|---|---|---|---|---|---|
| 1777804222 | 25° C | 35% | 1018.1 hPa | - | - | - | - |
| 1777803265 | 24.44° C | 39% | 1018.4 hPa | - | - | - | - |
| 1777802315 | 23.89° C | 39% | 1018.5 hPa | - | - | - | - |
| 1777802309 | 23.89° C | 39% | 1018.5 hPa | - | - | - | - |
| 1777801358 | 23.33° C | 42% | 1018.7 hPa | - | - | - | - |
| 1777801351 | 23.33° C | 42% | 1018.7 hPa | - | - | - | - |
| 1777800394 | 22.78° C | 42% | 1019 hPa | - | - | - | - |
| 1777799437 | 22.22° C | 44% | 1019.3 hPa | - | - | - | - |
| 1777798480 | 21.67° C | 45% | 1019.5 hPa | - | - | - | - |
| 1777797523 | 21.11° C | 44% | 1019.6 hPa | - | - | - | - |
| 1777796566 | 20° C | 49% | 1019.8 hPa | - | - | - | - |
| 1777795609 | 19.44° C | 50% | 1019.8 hPa | - | - | - | - |
| 1777794652 | 18.33° C | 52% | 1020.1 hPa | - | - | - | - |
| 1777793701 | 17.22° C | 57% | 1020.2 hPa | - | - | - | - |
| 1777793694 | 17.22° C | 57% | 1020.2 hPa | - | - | - | - |
| 1777792738 | 16.67° C | 58% | 1020.2 hPa | - | - | - | - |
| 1777791781 | 15.56° C | 65% | 1020.4 hPa | - | - | - | - |
| 1777790824 | 14.44° C | 65% | 1020.5 hPa | - | - | - | - |
| 1777789873 | 13.33° C | 68% | 1020.7 hPa | - | - | - | - |
| 1777789867 | 13.33° C | 68% | 1020.7 hPa | - | - | - | - |
| 1777788917 | 11.67° C | 74% | 1020.9 hPa | - | - | - | - |
| 1777788911 | 11.67° C | 74% | 1020.9 hPa | - | - | - | - |
| 1777787959 | 11.11° C | 78% | 1021 hPa | - | - | - | - |
| 1777787953 | 11.11° C | 78% | 1021 hPa | - | - | - | - |
| 1777786996 | 8.89° C | 85% | 1021.2 hPa | - | - | - | - |
* Rain since midnight (hover to see other rain measurements)
** Current wind speed in m/s (hover to see current wind gust speed)